ALK25L VCBI-OMDB

Flight info

Callsign ALK25L
Flight time 4h 4m
Altitude 38000
Route BASUR2D BASUR P570 POMAN/N0461F400 P570 ITURA M762 VAXAS/N0373F240 M762 MIVEK P574 IMPED
Aircraft A332/H-SDE3GHIJ2J3J5M1RVWXY/LB2D1

Departure

Time 2026-05-05 14:55
Airport Bandaranaike International Colombo Airport (VCBI)

Arrival

Time 2026-05-05 19:00
Airport Dubai International Airport (OMDB)
Time Latitude Longitude Altitude Speed Heading
2026-05-05 14:29 7.17702 79.88483 31 ft 0 kts 217°
2026-05-05 14:42 7.17703 79.88483 3 ft 2 kts 217°
2026-05-05 14:43 7.17724 79.88498 30 ft 4 kts 210°
2026-05-05 14:43 7.17748 79.88511 29 ft 4 kts 210°
2026-05-05 14:43 7.17767 79.88527 28 ft 4 kts 250°
2026-05-05 14:43 7.17770 79.88547 28 ft 4 kts 285°
2026-05-05 14:44 7.17758 79.88570 29 ft 4 kts 310°
2026-05-05 14:44 7.17747 79.88583 28 ft 0 kts 307°
2026-05-05 14:47 7.17748 79.88582 30 ft 1 kts 307°
2026-05-05 14:47 7.17753 79.88575 29 ft 1 kts 307°
2026-05-05 14:48 7.17771 79.88551 29 ft 7 kts 307°
2026-05-05 14:48 7.17812 79.88496 31 ft 11 kts 307°
2026-05-05 14:48 7.17852 79.88438 31 ft 9 kts 291°
2026-05-05 14:48 7.17832 79.88386 31 ft 8 kts 225°
2026-05-05 14:49 7.17785 79.88348 30 ft 10 kts 216°
2026-05-05 14:49 7.17721 79.88300 31 ft 12 kts 217°
2026-05-05 14:49 7.17652 79.88247 31 ft 13 kts 217°
2026-05-05 14:49 7.17577 79.88189 31 ft 14 kts 217°
2026-05-05 14:50 7.17498 79.88129 31 ft 13 kts 217°
2026-05-05 14:50 7.17421 79.88072 31 ft 14 kts 217°
2026-05-05 14:50 7.17340 79.88010 31 ft 15 kts 218°
2026-05-05 14:50 7.17254 79.87943 31 ft 16 kts 218°
2026-05-05 14:51 7.17165 79.87876 31 ft 16 kts 216°
2026-05-05 14:51 7.17074 79.87808 31 ft 17 kts 216°
2026-05-05 14:51 7.16981 79.87735 31 ft 17 kts 218°
2026-05-05 14:51 7.16885 79.87661 31 ft 17 kts 217°
2026-05-05 14:52 7.16870 79.87650 31 ft 1 kts 217°
2026-05-05 14:52 7.16850 79.87634 31 ft 5 kts 221°
2026-05-05 14:52 7.16838 79.87601 31 ft 5 kts 269°
2026-05-05 14:52 7.16854 79.87570 31 ft 5 kts 304°
2026-05-05 14:53 7.16876 79.87538 32 ft 6 kts 306°
2026-05-05 14:53 7.16899 79.87507 33 ft 6 kts 306°
2026-05-05 14:53 7.16924 79.87482 33 ft 4 kts 335°
2026-05-05 14:53 7.16951 79.87486 33 ft 4 kts 25°
2026-05-05 14:54 7.16965 79.87497 33 ft 0 kts 38°
2026-05-05 14:54 7.16973 79.87503 33 ft 2 kts 38°
2026-05-05 14:54 7.17016 79.87536 33 ft 18 kts 37°
2026-05-05 14:54 7.17264 79.87725 32 ft 75 kts 37°
2026-05-05 14:55 7.17833 79.88157 34 ft 128 kts 36°
2026-05-05 14:55 7.18660 79.88812 104 ft 169 kts 39°
2026-05-05 14:55 7.19633 79.89526 629 ft 176 kts 35°
2026-05-05 14:55 7.20654 79.90193 1319 ft 175 kts 19°
2026-05-05 14:56 7.21840 79.90111 1846 ft 181 kts 329°
2026-05-05 14:56 7.22807 79.89205 2092 ft 205 kts 308°
2026-05-05 14:56 7.23817 79.88043 2350 ft 234 kts 311°
2026-05-05 14:56 7.25003 79.86853 2899 ft 245 kts 315°
2026-05-05 14:57 7.26281 79.85691 3531 ft 250 kts 316°
2026-05-05 14:57 7.27434 79.84394 3898 ft 251 kts 307°
2026-05-05 14:57 7.28498 79.82980 3983 ft 252 kts 305°
2026-05-05 14:57 7.29548 79.81564 3994 ft 253 kts 306°
2026-05-05 14:58 7.30611 79.80146 3997 ft 253 kts 306°
2026-05-05 14:58 7.31679 79.78735 3995 ft 252 kts 306°
2026-05-05 14:58 7.32675 79.77302 4160 ft 249 kts 297°
2026-05-05 14:58 7.33150 79.75630 4678 ft 252 kts 270°
2026-05-05 14:59 7.32774 79.73907 5306 ft 260 kts 242°
2026-05-05 14:59 7.31579 79.72505 5851 ft 271 kts 221°
2026-05-05 14:59 7.30073 79.71324 6487 ft 278 kts 217°
2026-05-05 14:59 7.28502 79.70158 7141 ft 283 kts 217°
2026-05-05 15:00 7.26908 79.68966 7823 ft 287 kts 217°
2026-05-05 15:00 7.25842 79.68162 8292 ft 291 kts 217°
2026-05-05 15:00 7.23657 79.66500 9211 ft 298 kts 217°
2026-05-05 15:00 7.22010 79.65239 9869 ft 304 kts 217°
2026-05-05 15:01 7.20309 79.63927 10407 ft 315 kts 219°
2026-05-05 15:01 7.18785 79.62271 10668 ft 333 kts 240°
2026-05-05 15:01 7.18061 79.60022 10947 ft 347 kts 267°
2026-05-05 15:01 7.18403 79.57621 11473 ft 351 kts 292°
2026-05-05 15:02 7.19524 79.55432 12143 ft 354 kts 300°
2026-05-05 15:02 7.20783 79.53296 12794 ft 357 kts 300°
2026-05-05 15:02 7.22031 79.51123 13475 ft 359 kts 299°
2026-05-05 15:02 7.23254 79.48919 14074 ft 362 kts 298°
2026-05-05 15:03 7.24464 79.46684 14675 ft 364 kts 297°
2026-05-05 15:03 7.25667 79.44431 15251 ft 366 kts 297°
2026-05-05 15:03 7.26871 79.42157 15812 ft 370 kts 297°
2026-05-05 15:03 7.28086 79.39855 16315 ft 374 kts 297°
2026-05-05 15:04 7.29307 79.37534 16904 ft 377 kts 297°
2026-05-05 15:04 7.30536 79.35196 17488 ft 378 kts 297°
2026-05-05 15:04 7.31767 79.32853 18139 ft 378 kts 297°
2026-05-05 15:04 7.33003 79.30498 18507 ft 383 kts 297°
2026-05-05 15:05 7.35526 79.25686 19253 ft 394 kts 297°
2026-05-05 15:05 7.36812 79.23236 19688 ft 397 kts 297°
2026-05-05 15:05 7.38103 79.20775 20140 ft 398 kts 297°
2026-05-05 15:06 7.39398 79.18306 20638 ft 400 kts 297°
2026-05-05 15:06 7.40702 79.15818 21051 ft 402 kts 296°
2026-05-05 15:06 7.42011 79.13322 21472 ft 405 kts 296°
2026-05-05 15:06 7.43335 79.10794 21791 ft 410 kts 297°
2026-05-05 15:07 7.44673 79.08240 22190 ft 413 kts 296°
2026-05-05 15:07 7.46013 79.05682 22691 ft 413 kts 296°
2026-05-05 15:07 7.47364 79.03101 22917 ft 421 kts 297°
2026-05-05 15:07 7.48741 79.00473 23198 ft 426 kts 296°
2026-05-05 15:08 7.50129 78.97821 23571 ft 429 kts 296°
2026-05-05 15:08 7.51523 78.95159 23904 ft 431 kts 297°
2026-05-05 15:08 7.52923 78.92481 24237 ft 433 kts 297°
2026-05-05 15:08 7.54310 78.89824 24568 ft 435 kts 297°
2026-05-05 15:09 7.55720 78.87121 24896 ft 437 kts 296°
2026-05-05 15:09 7.57139 78.84401 25227 ft 439 kts 297°
2026-05-05 15:09 7.58563 78.81669 25564 ft 442 kts 297°
2026-05-05 15:09 7.59995 78.78924 25889 ft 444 kts 296°
2026-05-05 15:10 7.61436 78.76160 26201 ft 446 kts 296°
2026-05-05 15:10 7.62883 78.73384 26525 ft 448 kts 297°
2026-05-05 15:10 7.64336 78.70596 26842 ft 451 kts 297°
2026-05-05 15:10 7.65798 78.67790 27161 ft 453 kts 297°
2026-05-05 15:11 7.67262 78.64980 27534 ft 454 kts 297°
2026-05-05 15:11 7.68733 78.62156 27844 ft 456 kts 297°
2026-05-05 15:11 7.70211 78.59317 28127 ft 458 kts 297°
2026-05-05 15:11 7.71695 78.56468 28435 ft 461 kts 297°
2026-05-05 15:12 7.73189 78.53597 28738 ft 463 kts 297°
2026-05-05 15:12 7.74688 78.50716 29036 ft 465 kts 297°
2026-05-05 15:12 7.76196 78.47820 29336 ft 467 kts 297°
2026-05-05 15:12 7.77706 78.44916 29615 ft 470 kts 297°
2026-05-05 15:13 7.79230 78.41987 29901 ft 472 kts 297°
2026-05-05 15:13 7.80758 78.39048 30139 ft 474 kts 297°
2026-05-05 15:13 7.82291 78.36099 30379 ft 476 kts 297°
2026-05-05 15:13 7.83831 78.33137 30599 ft 478 kts 297°
2026-05-05 15:14 7.85380 78.30157 30815 ft 481 kts 297°
2026-05-05 15:14 7.86938 78.27159 31034 ft 483 kts 297°
2026-05-05 15:14 7.88497 78.24157 31289 ft 484 kts 297°
2026-05-05 15:14 7.90063 78.21142 31521 ft 486 kts 297°
2026-05-05 15:15 7.91634 78.18117 31732 ft 489 kts 297°
2026-05-05 15:15 7.93049 78.15369 32054 ft 487 kts 297°
2026-05-05 15:15 7.94438 78.12469 32412 ft 485 kts 295°
2026-05-05 15:15 7.95837 78.09369 32684 ft 486 kts 294°
2026-05-05 15:16 7.97206 78.06243 32928 ft 487 kts 294°
2026-05-05 15:16 7.98563 78.03117 33247 ft 487 kts 294°
2026-05-05 15:16 7.99926 77.99987 33529 ft 487 kts 294°
2026-05-05 15:16 8.01294 77.96864 33817 ft 487 kts 294°
2026-05-05 15:17 8.02670 77.93743 34099 ft 487 kts 295°
2026-05-05 15:17 8.04051 77.90623 34209 ft 490 kts 295°
2026-05-05 15:17 8.05448 77.87475 34551 ft 488 kts 294°
2026-05-05 15:17 8.06828 77.84366 34941 ft 484 kts 295°
2026-05-05 15:18 8.08211 77.81253 35022 ft 489 kts 295°
2026-05-05 15:18 8.09602 77.78119 35254 ft 489 kts 295°
2026-05-05 15:18 8.10992 77.74986 35434 ft 491 kts 295°
2026-05-05 15:18 8.12393 77.71828 35569 ft 493 kts 295°
2026-05-05 15:19 8.13787 77.68685 35984 ft 489 kts 295°
2026-05-05 15:19 8.15168 77.65567 36328 ft 487 kts 295°
2026-05-05 15:19 8.16552 77.62445 36599 ft 485 kts 295°
2026-05-05 15:19 8.17925 77.59344 36945 ft 483 kts 295°
2026-05-05 15:20 8.19274 77.56297 37204 ft 482 kts 295°
2026-05-05 15:20 8.20644 77.53204 37365 ft 484 kts 295°
2026-05-05 15:20 8.22016 77.50104 37606 ft 483 kts 295°
2026-05-05 15:20 8.23386 77.47010 37807 ft 484 kts 295°
2026-05-05 15:21 8.24758 77.43908 37871 ft 486 kts 295°
2026-05-05 15:21 8.27519 77.37667 37872 ft 485 kts 295°
2026-05-05 15:22 8.30265 77.31455 37883 ft 484 kts 295°
2026-05-05 15:22 8.33007 77.25249 37879 ft 484 kts 295°
2026-05-05 15:23 8.35748 77.19041 37880 ft 483 kts 295°
2026-05-05 15:23 8.38472 77.12869 37882 ft 480 kts 295°
2026-05-05 15:24 8.41185 77.06720 37877 ft 479 kts 295°
2026-05-05 15:24 8.43897 77.00572 37884 ft 479 kts 295°
2026-05-05 15:25 8.46626 76.94419 37881 ft 479 kts 297°
2026-05-05 15:25 8.50135 76.88719 37882 ft 478 kts 305°
2026-05-05 15:26 8.53970 76.83246 37875 ft 477 kts 307°
2026-05-05 15:26 8.57198 76.78747 37874 ft 476 kts 307°
2026-05-05 15:27 8.61077 76.73336 37874 ft 476 kts 307°
2026-05-05 15:27 8.64952 76.67903 37874 ft 477 kts 306°
2026-05-05 15:28 8.69443 76.61587 37874 ft 476 kts 306°
2026-05-05 15:28 8.72676 76.57036 37876 ft 476 kts 307°
2026-05-05 15:29 8.76538 76.51600 37878 ft 476 kts 306°
2026-05-05 15:29 8.80401 76.46161 37878 ft 476 kts 307°
2026-05-05 15:30 8.84261 76.40723 37873 ft 476 kts 306°
2026-05-05 15:30 8.88121 76.35283 37880 ft 476 kts 306°
2026-05-05 15:31 8.91976 76.29849 37881 ft 475 kts 306°
2026-05-05 15:31 8.95825 76.24419 37884 ft 475 kts 306°
2026-05-05 15:32 8.99678 76.18982 37883 ft 476 kts 306°
2026-05-05 15:32 9.03536 76.13536 37891 ft 477 kts 307°
2026-05-05 15:33 9.07395 76.08087 37884 ft 476 kts 307°
2026-05-05 15:33 9.11243 76.02651 37890 ft 474 kts 307°
2026-05-05 15:34 9.15082 75.97225 37892 ft 474 kts 306°
2026-05-05 15:34 9.18921 75.91797 37887 ft 474 kts 306°
2026-05-05 15:35 9.22767 75.86359 37893 ft 476 kts 306°
2026-05-05 15:35 9.26612 75.80916 37889 ft 474 kts 306°
2026-05-05 15:36 9.30443 75.75491 37887 ft 474 kts 305°
2026-05-05 15:36 9.34281 75.70054 37889 ft 475 kts 305°
2026-05-05 15:37 9.38128 75.64603 37889 ft 476 kts 305°
2026-05-05 15:37 9.41956 75.59175 37889 ft 477 kts 305°
2026-05-05 15:38 9.45813 75.53705 37894 ft 476 kts 305°
2026-05-05 15:38 9.49656 75.48252 37892 ft 476 kts 305°
2026-05-05 15:39 9.53510 75.42782 37885 ft 478 kts 306°
2026-05-05 15:39 9.57377 75.37290 37889 ft 480 kts 306°
2026-05-05 15:40 9.61257 75.31778 37887 ft 481 kts 306°
2026-05-05 15:40 9.65138 75.26261 37890 ft 481 kts 306°
2026-05-05 15:41 9.69015 75.20747 37889 ft 481 kts 306°
2026-05-05 15:41 9.72893 75.15229 37890 ft 480 kts 306°
2026-05-05 15:42 9.76770 75.09711 37889 ft 480 kts 306°
2026-05-05 15:42 9.80648 75.04188 37887 ft 480 kts 306°
2026-05-05 15:43 9.84521 74.98670 37889 ft 480 kts 306°
2026-05-05 15:43 9.88395 74.93149 37890 ft 480 kts 306°
2026-05-05 15:44 9.92262 74.87634 37892 ft 480 kts 306°
2026-05-05 15:44 9.96132 74.82113 37887 ft 480 kts 306°
2026-05-05 15:45 9.99994 74.76599 37889 ft 480 kts 306°
2026-05-05 15:45 10.03837 74.71111 37887 ft 480 kts 306°
2026-05-05 15:46 10.07704 74.65586 37885 ft 480 kts 306°
2026-05-05 15:46 10.11566 74.60065 37887 ft 480 kts 306°
2026-05-05 15:47 10.15427 74.54543 37887 ft 480 kts 306°
2026-05-05 15:47 10.19290 74.49016 37887 ft 480 kts 306°
2026-05-05 15:48 10.23154 74.43485 37888 ft 482 kts 305°
2026-05-05 15:48 10.27032 74.37931 37888 ft 482 kts 305°
2026-05-05 15:49 10.30907 74.32378 37890 ft 482 kts 305°
2026-05-05 15:49 10.34780 74.26826 37886 ft 481 kts 305°
2026-05-05 15:50 10.38652 74.21272 37880 ft 482 kts 305°
2026-05-05 15:50 10.42533 74.15733 37886 ft 481 kts 305°
2026-05-05 15:51 10.46439 74.10206 37879 ft 481 kts 305°
2026-05-05 15:51 10.50344 74.04680 37880 ft 482 kts 305°
2026-05-05 15:52 10.54203 73.99124 37880 ft 482 kts 305°
2026-05-05 15:52 10.58163 73.93522 37879 ft 484 kts 306°
2026-05-05 15:53 10.62030 73.88060 37884 ft 477 kts 306°
2026-05-05 15:53 10.65870 73.82650 37885 ft 474 kts 306°
2026-05-05 15:54 10.69717 73.77207 37882 ft 474 kts 306°
2026-05-05 15:54 10.73563 73.71748 37883 ft 475 kts 306°
2026-05-05 15:55 10.77401 73.66292 37882 ft 474 kts 306°
2026-05-05 15:55 10.81244 73.60826 37883 ft 476 kts 306°
2026-05-05 15:56 10.85103 73.55336 37882 ft 477 kts 306°
2026-05-05 15:56 10.88957 73.49849 37885 ft 475 kts 306°
2026-05-05 15:57 10.92785 73.44396 37882 ft 473 kts 306°
2026-05-05 15:57 10.96618 73.38935 37881 ft 473 kts 306°
2026-05-05 15:58 11.00443 73.33483 37880 ft 474 kts 306°
2026-05-05 15:58 11.04273 73.28019 37882 ft 474 kts 306°
2026-05-05 15:59 11.08095 73.22564 37880 ft 473 kts 306°
2026-05-05 15:59 11.11913 73.17113 37889 ft 473 kts 306°
2026-05-05 16:00 11.15739 73.11647 37887 ft 473 kts 306°
2026-05-05 16:00 11.19555 73.06193 37887 ft 473 kts 306°
2026-05-05 16:01 11.23368 73.00739 37886 ft 472 kts 306°
2026-05-05 16:01 11.27179 72.95286 37888 ft 473 kts 306°
2026-05-05 16:02 11.30989 72.89831 37886 ft 472 kts 306°
2026-05-05 16:02 11.34795 72.84380 37883 ft 471 kts 306°
2026-05-05 16:03 11.38595 72.78935 37886 ft 471 kts 306°
2026-05-05 16:03 11.42369 72.73523 37888 ft 472 kts 306°
2026-05-05 16:04 11.46168 72.68073 37887 ft 470 kts 306°
2026-05-05 16:04 11.49901 72.62714 37891 ft 460 kts 306°
2026-05-05 16:05 11.53623 72.57368 37888 ft 465 kts 306°
2026-05-05 16:05 11.57377 72.51975 37893 ft 467 kts 306°
2026-05-05 16:06 11.61129 72.46581 37891 ft 466 kts 306°
2026-05-05 16:06 11.64863 72.41209 37885 ft 466 kts 306°
2026-05-05 16:07 11.68604 72.35826 37885 ft 465 kts 306°
2026-05-05 16:07 11.72346 72.30436 37884 ft 466 kts 306°
2026-05-05 16:08 11.76097 72.25028 37895 ft 466 kts 305°
2026-05-05 16:08 11.79836 72.19630 37895 ft 466 kts 306°
2026-05-05 16:09 11.83587 72.14226 37893 ft 467 kts 306°
2026-05-05 16:09 11.87355 72.08793 37895 ft 472 kts 306°
2026-05-05 16:10 11.91157 72.03306 37885 ft 473 kts 306°
2026-05-05 16:10 11.94973 71.97849 37907 ft 472 kts 307°
2026-05-05 16:10 11.96927 71.95138 38012 ft 475 kts 307°
2026-05-05 16:11 11.98909 71.92414 38046 ft 479 kts 307°
2026-05-05 16:11 12.04850 71.84263 38918 ft 472 kts 307°
2026-05-05 16:12 12.06802 71.81575 39109 ft 471 kts 307°
2026-05-05 16:12 12.10707 71.76186 39399 ft 472 kts 307°
2026-05-05 16:13 12.16556 71.68103 39850 ft 472 kts 307°
2026-05-05 16:13 12.20487 71.62666 39893 ft 479 kts 307°
2026-05-05 16:14 12.28395 71.51723 39895 ft 477 kts 307°
2026-05-05 16:15 12.35616 71.41720 39894 ft 478 kts 307°
2026-05-05 16:16 12.43509 71.30773 39893 ft 476 kts 306°
2026-05-05 16:17 12.49407 71.22585 39894 ft 478 kts 306°
2026-05-05 16:18 12.55330 71.14371 39893 ft 477 kts 306°
2026-05-05 16:19 12.61221 71.06193 39892 ft 475 kts 306°
2026-05-05 16:19 12.67121 70.97992 39897 ft 479 kts 306°
2026-05-05 16:20 12.75008 70.87022 39896 ft 477 kts 306°
2026-05-05 16:22 12.84872 70.73284 39898 ft 478 kts 307°
2026-05-05 16:23 12.92735 70.62315 39893 ft 476 kts 307°
2026-05-05 16:23 12.98632 70.54082 39898 ft 477 kts 306°
2026-05-05 16:24 13.02550 70.48607 39901 ft 476 kts 307°
2026-05-05 16:25 13.08410 70.40392 39899 ft 475 kts 306°
2026-05-05 16:25 13.14247 70.32164 39896 ft 476 kts 307°
2026-05-05 16:26 13.21990 70.21242 39900 ft 475 kts 307°
2026-05-05 16:27 13.25881 70.15750 39901 ft 475 kts 307°
2026-05-05 16:27 13.29765 70.10265 39897 ft 474 kts 307°
2026-05-05 16:28 13.33637 70.04793 39900 ft 473 kts 307°
2026-05-05 16:28 13.37506 69.99321 39903 ft 474 kts 307°
2026-05-05 16:29 13.41376 69.93846 39904 ft 473 kts 307°
2026-05-05 16:29 13.45231 69.88387 39903 ft 471 kts 307°
2026-05-05 16:30 13.49080 69.82935 39907 ft 471 kts 307°
2026-05-05 16:30 13.52929 69.77478 39908 ft 471 kts 307°
2026-05-05 16:31 13.56773 69.72025 39907 ft 471 kts 307°
2026-05-05 16:31 13.60618 69.66568 39902 ft 471 kts 307°
2026-05-05 16:32 13.64463 69.61106 39906 ft 471 kts 307°
2026-05-05 16:32 13.68278 69.55684 39907 ft 471 kts 307°
2026-05-05 16:33 13.72119 69.50222 39909 ft 471 kts 307°
2026-05-05 16:33 13.75957 69.44760 39910 ft 471 kts 307°
2026-05-05 16:34 13.79790 69.39302 39905 ft 471 kts 306°
2026-05-05 16:34 13.83627 69.33835 39903 ft 471 kts 306°
2026-05-05 16:35 13.87460 69.28371 39907 ft 471 kts 306°
2026-05-05 16:35 13.91290 69.22905 39908 ft 471 kts 307°
2026-05-05 16:36 13.95121 69.17437 39907 ft 471 kts 306°
2026-05-05 16:36 13.98950 69.11967 39905 ft 471 kts 306°
2026-05-05 16:37 14.02786 69.06483 39903 ft 472 kts 306°
2026-05-05 16:37 14.06627 69.00989 39906 ft 473 kts 306°
2026-05-05 16:38 14.10473 68.95505 39905 ft 473 kts 306°
2026-05-05 16:38 14.14346 68.90025 39906 ft 472 kts 307°
2026-05-05 16:39 14.18216 68.84551 39908 ft 472 kts 307°
2026-05-05 16:39 14.22083 68.79075 39908 ft 473 kts 306°
2026-05-05 16:40 14.25948 68.73594 39908 ft 472 kts 306°
2026-05-05 16:40 14.29810 68.68113 39909 ft 472 kts 306°
2026-05-05 16:41 14.33670 68.62631 39909 ft 473 kts 306°
2026-05-05 16:41 14.37531 68.57145 39908 ft 473 kts 306°
2026-05-05 16:42 14.41393 68.51653 39908 ft 473 kts 306°
2026-05-05 16:42 14.45250 68.46165 39908 ft 472 kts 306°
2026-05-05 16:43 14.49105 68.40675 39911 ft 473 kts 306°
2026-05-05 16:43 14.52936 68.35216 39911 ft 472 kts 306°
2026-05-05 16:44 14.56786 68.29728 39908 ft 472 kts 306°
2026-05-05 16:44 14.60638 68.24231 39909 ft 472 kts 306°
2026-05-05 16:45 14.64482 68.18743 39909 ft 471 kts 306°
2026-05-05 16:45 14.68327 68.13250 39906 ft 472 kts 306°
2026-05-05 16:46 14.72169 68.07755 39908 ft 472 kts 306°
2026-05-05 16:46 14.76016 68.02252 39908 ft 473 kts 306°
2026-05-05 16:47 14.79860 67.96748 39909 ft 472 kts 306°
2026-05-05 16:47 14.83706 67.91238 39907 ft 473 kts 306°
2026-05-05 16:48 14.87551 67.85726 39906 ft 473 kts 306°
2026-05-05 16:48 14.91397 67.80208 39908 ft 473 kts 306°
2026-05-05 16:49 14.95235 67.74697 39909 ft 472 kts 306°
2026-05-05 16:49 14.99047 67.69221 39909 ft 472 kts 306°
2026-05-05 16:50 15.02882 67.63706 39908 ft 471 kts 306°
2026-05-05 16:50 15.06708 67.58202 39905 ft 471 kts 306°
2026-05-05 16:51 15.10537 67.52689 39910 ft 472 kts 306°
2026-05-05 16:51 15.14364 67.47176 39907 ft 472 kts 306°
2026-05-05 16:52 15.18189 67.41660 39908 ft 472 kts 306°
2026-05-05 16:52 15.22023 67.36129 39908 ft 473 kts 306°
2026-05-05 16:53 15.25853 67.30598 39906 ft 472 kts 306°
2026-05-05 16:53 15.29677 67.25073 39905 ft 471 kts 306°
2026-05-05 16:54 15.33497 67.19549 39909 ft 472 kts 306°
2026-05-05 16:54 15.37316 67.14023 39909 ft 472 kts 306°
2026-05-05 16:55 15.41131 67.08499 39909 ft 471 kts 306°
2026-05-05 16:55 15.44939 67.02981 39909 ft 471 kts 306°
2026-05-05 16:56 15.48754 66.97448 39907 ft 472 kts 306°
2026-05-05 16:56 15.52565 66.91918 39909 ft 471 kts 306°
2026-05-05 16:57 15.56371 66.86390 39908 ft 472 kts 306°
2026-05-05 16:57 15.60176 66.80887 39909 ft 472 kts 306°
2026-05-05 16:58 15.64058 66.75344 39909 ft 471 kts 306°
2026-05-05 16:58 15.67913 66.69850 39910 ft 471 kts 307°
2026-05-05 16:59 15.71741 66.64385 39908 ft 471 kts 306°
2026-05-05 16:59 15.75586 66.58885 39908 ft 470 kts 306°
2026-05-05 17:00 15.79419 66.53397 39911 ft 470 kts 306°
2026-05-05 17:00 15.83251 66.47906 39911 ft 470 kts 307°
2026-05-05 17:01 15.87085 66.42409 39908 ft 470 kts 306°
2026-05-05 17:01 15.90914 66.36915 39909 ft 470 kts 306°
2026-05-05 17:02 15.94745 66.31414 39908 ft 470 kts 306°
2026-05-05 17:02 15.98574 66.25911 39908 ft 470 kts 306°
2026-05-05 17:03 16.01756 66.21336 39908 ft 470 kts 306°
2026-05-05 17:03 16.06223 66.14908 39911 ft 469 kts 306°
2026-05-05 17:04 16.09395 66.10339 39909 ft 469 kts 306°
2026-05-05 17:04 16.13212 66.04838 39908 ft 469 kts 306°
2026-05-05 17:05 16.17025 65.99339 39908 ft 469 kts 306°
2026-05-05 17:05 16.20838 65.93835 39908 ft 469 kts 306°
2026-05-05 17:06 16.24651 65.88327 39911 ft 469 kts 306°
2026-05-05 17:06 16.28468 65.82810 39911 ft 470 kts 306°
2026-05-05 17:07 16.32251 65.77337 39908 ft 468 kts 306°
2026-05-05 17:07 16.36052 65.71835 39908 ft 468 kts 306°
2026-05-05 17:08 16.39850 65.66331 39911 ft 468 kts 306°
2026-05-05 17:08 16.43646 65.60827 39908 ft 468 kts 306°
2026-05-05 17:09 16.47447 65.55312 39911 ft 468 kts 306°
2026-05-05 17:09 16.51241 65.49802 39911 ft 468 kts 306°
2026-05-05 17:10 16.55040 65.44281 39911 ft 468 kts 306°
2026-05-05 17:10 16.58829 65.38770 39911 ft 467 kts 306°
2026-05-05 17:11 16.62615 65.33259 39912 ft 467 kts 306°
2026-05-05 17:11 16.66397 65.27750 39911 ft 467 kts 306°
2026-05-05 17:12 16.70181 65.22234 39912 ft 467 kts 306°
2026-05-05 17:12 16.73962 65.16717 39911 ft 468 kts 306°
2026-05-05 17:13 16.77743 65.11197 39911 ft 468 kts 306°
2026-05-05 17:13 16.81523 65.05673 39911 ft 468 kts 306°
2026-05-05 17:14 16.85299 65.00150 39912 ft 467 kts 306°
2026-05-05 17:14 16.89072 64.94628 39911 ft 467 kts 306°
2026-05-05 17:15 16.92840 64.89108 39911 ft 467 kts 306°
2026-05-05 17:15 16.96610 64.83583 39911 ft 467 kts 306°
2026-05-05 17:16 17.00350 64.78096 39911 ft 467 kts 306°
2026-05-05 17:16 17.04114 64.72570 39911 ft 467 kts 306°
2026-05-05 17:17 17.07879 64.67037 39911 ft 467 kts 306°
2026-05-05 17:17 17.11641 64.61505 39911 ft 467 kts 306°
2026-05-05 17:18 17.15398 64.55975 39911 ft 467 kts 306°
2026-05-05 17:18 17.19162 64.50431 39912 ft 467 kts 306°
2026-05-05 17:19 17.22918 64.44894 39911 ft 467 kts 306°
2026-05-05 17:19 17.26674 64.39353 39911 ft 467 kts 306°
2026-05-05 17:20 17.30461 64.33836 39912 ft 467 kts 307°
2026-05-05 17:20 17.34319 64.28372 39911 ft 467 kts 307°
2026-05-05 17:21 17.38184 64.22919 39911 ft 466 kts 307°
2026-05-05 17:22 17.43965 64.14727 39909 ft 466 kts 307°
2026-05-05 17:22 17.47811 64.09261 39913 ft 466 kts 307°
2026-05-05 17:23 17.51658 64.03788 39909 ft 466 kts 307°
2026-05-05 17:23 17.55501 63.98317 39910 ft 465 kts 307°
2026-05-05 17:24 17.59293 63.92914 39913 ft 461 kts 307°
2026-05-05 17:24 17.63086 63.87507 39910 ft 460 kts 307°
2026-05-05 17:25 17.66879 63.82095 39912 ft 460 kts 307°
2026-05-05 17:25 17.70665 63.76687 39911 ft 460 kts 307°
2026-05-05 17:26 17.74451 63.71277 39910 ft 460 kts 307°
2026-05-05 17:26 17.78239 63.65858 39907 ft 460 kts 307°
2026-05-05 17:27 17.82022 63.60443 39908 ft 460 kts 307°
2026-05-05 17:27 17.85806 63.55021 39908 ft 460 kts 307°
2026-05-05 17:28 17.89586 63.49600 39910 ft 460 kts 307°
2026-05-05 17:28 17.93367 63.44175 39906 ft 460 kts 307°
2026-05-05 17:29 17.97140 63.38756 39904 ft 459 kts 307°
2026-05-05 17:29 18.00911 63.33334 39906 ft 459 kts 307°
2026-05-05 17:30 18.04675 63.27918 39908 ft 459 kts 307°
2026-05-05 17:30 18.08437 63.22502 39906 ft 458 kts 307°
2026-05-05 17:31 18.12196 63.17085 39905 ft 459 kts 306°
2026-05-05 17:31 18.15960 63.11657 39896 ft 459 kts 306°
2026-05-05 17:32 18.19695 63.06265 39900 ft 459 kts 306°
2026-05-05 17:32 18.23461 63.00825 39898 ft 460 kts 306°
2026-05-05 17:33 18.27226 62.95380 39892 ft 460 kts 306°
2026-05-05 17:33 18.30984 62.89942 39896 ft 459 kts 306°
2026-05-05 17:34 18.34741 62.84500 39898 ft 460 kts 307°
2026-05-05 17:34 18.38498 62.79055 39895 ft 459 kts 306°
2026-05-05 17:35 18.42248 62.73614 39889 ft 460 kts 306°
2026-05-05 17:35 18.46004 62.68160 39890 ft 460 kts 306°
2026-05-05 17:36 18.49760 62.62702 39890 ft 460 kts 306°
2026-05-05 17:36 18.53509 62.57248 39887 ft 460 kts 306°
2026-05-05 17:37 18.57263 62.51785 39887 ft 460 kts 306°
2026-05-05 17:37 18.61005 62.46301 39890 ft 461 kts 306°
2026-05-05 17:38 18.64722 62.40807 39889 ft 460 kts 306°
2026-05-05 17:38 18.68441 62.35303 39883 ft 461 kts 306°
2026-05-05 17:39 18.72159 62.29799 39884 ft 461 kts 306°
2026-05-05 17:39 18.75874 62.24298 39884 ft 460 kts 306°
2026-05-05 17:40 18.79589 62.18795 39884 ft 461 kts 306°
2026-05-05 17:40 18.83303 62.13287 39887 ft 460 kts 306°
2026-05-05 17:41 18.87016 62.07775 39885 ft 461 kts 305°
2026-05-05 17:41 18.90732 62.02255 39883 ft 461 kts 305°
2026-05-05 17:42 18.94449 61.96727 39884 ft 462 kts 305°
2026-05-05 17:42 18.98164 61.91199 39882 ft 462 kts 305°
2026-05-05 17:43 19.01878 61.85665 39882 ft 462 kts 305°
2026-05-05 17:43 19.05595 61.80123 39882 ft 462 kts 305°
2026-05-05 17:44 19.09307 61.74584 39880 ft 462 kts 305°
2026-05-05 17:44 19.13019 61.69040 39882 ft 462 kts 305°
2026-05-05 17:45 19.16734 61.63486 39880 ft 463 kts 305°
2026-05-05 17:45 19.20449 61.57927 39877 ft 463 kts 305°
2026-05-05 17:46 19.24161 61.52367 39877 ft 462 kts 305°
2026-05-05 17:46 19.27847 61.46842 39879 ft 463 kts 305°
2026-05-05 17:47 19.31554 61.41281 39880 ft 463 kts 305°
2026-05-05 17:47 19.35262 61.35712 39877 ft 463 kts 304°
2026-05-05 17:48 19.38968 61.30142 39876 ft 463 kts 304°
2026-05-05 17:48 19.42672 61.24569 39875 ft 463 kts 304°
2026-05-05 17:49 19.46375 61.18992 39876 ft 463 kts 304°
2026-05-05 17:49 19.50078 61.13410 39876 ft 463 kts 304°
2026-05-05 17:50 19.53777 61.07830 39872 ft 463 kts 304°
2026-05-05 17:50 19.57478 61.02242 39871 ft 463 kts 304°
2026-05-05 17:51 19.61177 60.96651 39867 ft 463 kts 304°
2026-05-05 17:51 19.64874 60.91059 39870 ft 463 kts 304°
2026-05-05 17:52 19.68574 60.85456 39870 ft 463 kts 304°
2026-05-05 17:52 19.72270 60.79854 39870 ft 463 kts 304°
2026-05-05 17:53 19.75963 60.74252 39870 ft 463 kts 304°
2026-05-05 17:53 19.79659 60.68640 39870 ft 464 kts 304°
2026-05-05 17:54 19.82727 60.63977 39871 ft 464 kts 304°
2026-05-05 17:54 19.86414 60.58368 39867 ft 463 kts 304°
2026-05-05 17:55 19.90097 60.52760 39868 ft 463 kts 304°
2026-05-05 17:55 19.93780 60.47149 39864 ft 463 kts 303°
2026-05-05 17:56 19.97457 60.41539 39865 ft 463 kts 304°
2026-05-05 17:56 20.01136 60.35923 39865 ft 463 kts 304°
2026-05-05 17:57 20.05174 60.30603 39867 ft 463 kts 316°
2026-05-05 17:57 20.10366 60.26561 39862 ft 464 kts 326°
2026-05-05 17:58 20.15895 60.22997 39861 ft 465 kts 328°
2026-05-05 17:58 20.21479 60.19517 39862 ft 465 kts 329°
2026-05-05 17:59 20.27054 60.16018 39861 ft 465 kts 328°
2026-05-05 17:59 20.32608 60.12499 39859 ft 464 kts 328°
2026-05-05 18:00 20.38145 60.08976 39859 ft 463 kts 327°
2026-05-05 18:00 20.43642 60.05475 39859 ft 463 kts 327°
2026-05-05 18:01 20.49179 60.01947 39857 ft 464 kts 328°
2026-05-05 18:01 20.54713 59.98417 39853 ft 463 kts 327°
2026-05-05 18:02 20.60241 59.94890 39853 ft 462 kts 328°
2026-05-05 18:02 20.65760 59.91365 39854 ft 461 kts 328°
2026-05-05 18:03 20.71267 59.87845 39857 ft 461 kts 328°
2026-05-05 18:03 20.76767 59.84326 39854 ft 461 kts 327°
2026-05-05 18:04 20.82261 59.80807 39854 ft 460 kts 328°
2026-05-05 18:04 20.87749 59.77290 39853 ft 460 kts 327°
2026-05-05 18:05 20.93230 59.73774 39853 ft 459 kts 328°
2026-05-05 18:05 20.98714 59.70253 39850 ft 460 kts 327°
2026-05-05 18:06 21.04196 59.66730 39856 ft 459 kts 328°
2026-05-05 18:06 21.09676 59.63203 39858 ft 459 kts 327°
2026-05-05 18:07 21.15143 59.59680 39853 ft 459 kts 327°
2026-05-05 18:07 21.20609 59.56157 39855 ft 458 kts 327°
2026-05-05 18:08 21.26075 59.52630 39850 ft 458 kts 327°
2026-05-05 18:08 21.31535 59.49102 39850 ft 458 kts 327°
2026-05-05 18:09 21.36996 59.45570 39857 ft 458 kts 327°
2026-05-05 18:09 21.42441 59.42046 39853 ft 457 kts 327°
2026-05-05 18:10 21.47887 59.38518 39853 ft 457 kts 327°
2026-05-05 18:10 21.53330 59.34989 39857 ft 457 kts 327°
2026-05-05 18:11 21.58776 59.31454 39860 ft 457 kts 327°
2026-05-05 18:11 21.64216 59.27922 39855 ft 456 kts 327°
2026-05-05 18:12 21.69611 59.24417 39856 ft 456 kts 327°
2026-05-05 18:12 21.75045 59.20884 39863 ft 456 kts 327°
2026-05-05 18:13 21.80474 59.17350 39861 ft 456 kts 327°
2026-05-05 18:13 21.85906 59.13812 39867 ft 456 kts 326°
2026-05-05 18:14 21.91330 59.10276 39864 ft 455 kts 326°
2026-05-05 18:14 21.96745 59.06742 39865 ft 455 kts 326°
2026-05-05 18:15 22.02158 59.03206 39873 ft 455 kts 326°
2026-05-05 18:15 22.07574 58.99666 39867 ft 455 kts 326°
2026-05-05 18:16 22.12991 58.96121 39874 ft 455 kts 326°
2026-05-05 18:16 22.18401 58.92578 39860 ft 455 kts 326°
2026-05-05 18:17 22.23814 58.89030 39864 ft 455 kts 326°
2026-05-05 18:17 22.29227 58.85478 39877 ft 455 kts 326°
2026-05-05 18:18 22.34638 58.81924 39875 ft 455 kts 326°
2026-05-05 18:18 22.40003 58.78398 39883 ft 454 kts 326°
2026-05-05 18:19 22.45405 58.74844 39868 ft 454 kts 326°
2026-05-05 18:19 22.50798 58.71293 39867 ft 454 kts 326°
2026-05-05 18:20 22.56200 58.67732 39863 ft 454 kts 326°
2026-05-05 18:20 22.61595 58.64173 39866 ft 454 kts 326°
2026-05-05 18:21 22.66977 58.60620 39871 ft 453 kts 326°
2026-05-05 18:21 22.72351 58.57068 39866 ft 453 kts 326°
2026-05-05 18:22 22.77738 58.53505 39865 ft 453 kts 326°
2026-05-05 18:22 22.83119 58.49944 39865 ft 453 kts 325°
2026-05-05 18:23 22.88498 58.46380 39870 ft 453 kts 325°
2026-05-05 18:23 22.93872 58.42815 39861 ft 453 kts 325°
2026-05-05 18:24 22.99294 58.39214 39860 ft 461 kts 325°
2026-05-05 18:24 23.04800 58.35553 39851 ft 466 kts 325°
2026-05-05 18:25 23.10322 58.31881 39855 ft 465 kts 324°
2026-05-05 18:25 23.15834 58.28211 39839 ft 464 kts 325°
2026-05-05 18:26 23.21338 58.24541 39826 ft 464 kts 325°
2026-05-05 18:26 23.26839 58.20866 39822 ft 464 kts 324°
2026-05-05 18:27 23.32308 58.17211 39798 ft 464 kts 324°
2026-05-05 18:27 23.37716 58.13423 39803 ft 459 kts 318°
2026-05-05 18:28 23.44036 58.05802 39807 ft 452 kts 303°
2026-05-05 18:28 23.47696 58.00241 39811 ft 452 kts 302°
2026-05-05 18:29 23.51305 57.94634 39818 ft 451 kts 302°
2026-05-05 18:29 23.54922 57.89052 39828 ft 450 kts 302°
2026-05-05 18:30 23.58540 57.83499 39811 ft 449 kts 302°
2026-05-05 18:30 23.62309 57.78053 39823 ft 451 kts 304°
2026-05-05 18:31 23.66191 57.72680 39811 ft 451 kts 305°
2026-05-05 18:31 23.70069 57.67310 39813 ft 451 kts 304°
2026-05-05 18:32 23.73930 57.61924 39808 ft 450 kts 304°
2026-05-05 18:32 23.77779 57.56530 39817 ft 450 kts 304°
2026-05-05 18:33 23.81621 57.51135 39810 ft 450 kts 304°
2026-05-05 18:33 23.85459 57.45742 39808 ft 450 kts 304°
2026-05-05 18:34 23.89300 57.40341 39810 ft 450 kts 304°
2026-05-05 18:34 23.93112 57.34975 39820 ft 450 kts 304°
2026-05-05 18:35 23.96943 57.29576 39811 ft 449 kts 304°
2026-05-05 18:35 23.98853 57.26884 39662 ft 448 kts 304°
2026-05-05 18:35 24.00764 57.24187 39188 ft 447 kts 304°
2026-05-05 18:36 24.02663 57.21507 38761 ft 445 kts 304°
2026-05-05 18:36 24.04545 57.18849 38080 ft 439 kts 304°
2026-05-05 18:36 24.06416 57.16206 37071 ft 441 kts 304°
2026-05-05 18:36 24.08303 57.13535 36231 ft 446 kts 304°
2026-05-05 18:37 24.10204 57.10841 35568 ft 448 kts 304°
2026-05-05 18:37 24.12117 57.08130 34894 ft 451 kts 305°
2026-05-05 18:37 24.14039 57.05406 34281 ft 452 kts 304°
2026-05-05 18:37 24.15964 57.02679 33658 ft 453 kts 305°
2026-05-05 18:38 24.17891 56.99947 32902 ft 455 kts 305°
2026-05-05 18:38 24.19826 56.97203 32177 ft 456 kts 305°
2026-05-05 18:38 24.21768 56.94446 31450 ft 457 kts 305°
2026-05-05 18:38 24.23713 56.91681 30711 ft 459 kts 306°
2026-05-05 18:39 24.25662 56.88911 29998 ft 460 kts 306°
2026-05-05 18:39 24.27601 56.86152 29077 ft 453 kts 306°
2026-05-05 18:39 24.29520 56.83422 27933 ft 449 kts 306°
2026-05-05 18:39 24.31420 56.80716 26857 ft 446 kts 306°
2026-05-05 18:40 24.33304 56.78032 25852 ft 441 kts 306°
2026-05-05 18:40 24.35162 56.75383 24900 ft 437 kts 307°
2026-05-05 18:40 24.37015 56.72738 24232 ft 436 kts 307°
2026-05-05 18:40 24.38856 56.70109 23720 ft 432 kts 307°
2026-05-05 18:41 24.40678 56.67506 23151 ft 429 kts 307°
2026-05-05 18:41 24.42488 56.64922 22522 ft 425 kts 308°
2026-05-05 18:41 24.44416 56.62473 21912 ft 422 kts 311°
2026-05-05 18:41 24.46376 56.60095 21317 ft 418 kts 312°
2026-05-05 18:42 24.48245 56.57674 20703 ft 412 kts 308°
2026-05-05 18:42 24.49964 56.55197 19691 ft 405 kts 307°
2026-05-05 18:42 24.51645 56.52708 18874 ft 407 kts 306°
2026-05-05 18:42 24.52751 56.51054 18530 ft 404 kts 306°
2026-05-05 18:43 24.54403 56.48574 18001 ft 400 kts 306°
2026-05-05 18:43 24.56033 56.46118 17368 ft 397 kts 306°
2026-05-05 18:43 24.57653 56.43674 16752 ft 394 kts 306°
2026-05-05 18:43 24.59259 56.41247 16173 ft 391 kts 306°
2026-05-05 18:44 24.60850 56.38842 15586 ft 388 kts 306°
2026-05-05 18:44 24.62428 56.36455 14986 ft 386 kts 306°
2026-05-05 18:44 24.63999 56.34076 14417 ft 383 kts 306°
2026-05-05 18:44 24.65550 56.31728 13903 ft 378 kts 306°
2026-05-05 18:45 24.67090 56.29393 13270 ft 376 kts 305°
2026-05-05 18:45 24.68622 56.27070 12553 ft 376 kts 305°
2026-05-05 18:45 24.70154 56.24745 11848 ft 376 kts 305°
2026-05-05 18:45 24.71684 56.22423 11256 ft 373 kts 305°
2026-05-05 18:46 24.73196 56.20127 10718 ft 369 kts 305°
2026-05-05 18:46 24.74677 56.17875 10453 ft 357 kts 305°
2026-05-05 18:46 24.76097 56.15718 10241 ft 337 kts 305°
2026-05-05 18:46 24.77422 56.13704 9963 ft 315 kts 305°
2026-05-05 18:47 24.78676 56.11797 9519 ft 301 kts 305°
2026-05-05 18:47 24.79892 56.09948 8906 ft 297 kts 305°
2026-05-05 18:47 24.81097 56.08107 8429 ft 296 kts 304°
2026-05-05 18:47 24.82283 56.06301 8068 ft 294 kts 304°
2026-05-05 18:48 24.83489 56.04463 7741 ft 291 kts 304°
2026-05-05 18:48 24.84669 56.02662 7390 ft 289 kts 304°
2026-05-05 18:48 24.85830 56.00891 7043 ft 288 kts 304°
2026-05-05 18:48 24.87000 55.99106 6688 ft 287 kts 304°
2026-05-05 18:49 24.88168 55.97325 6342 ft 286 kts 304°
2026-05-05 18:49 24.89331 55.95548 5974 ft 285 kts 304°
2026-05-05 18:49 24.90483 55.93789 5668 ft 281 kts 304°
2026-05-05 18:49 24.91622 55.92048 5321 ft 279 kts 305°
2026-05-05 18:50 24.92756 55.90315 4937 ft 279 kts 306°
2026-05-05 18:50 24.93889 55.88581 4582 ft 278 kts 306°
2026-05-05 18:50 24.95019 55.86857 4202 ft 277 kts 294°
2026-05-05 18:50 24.96064 55.85102 3873 ft 272 kts 304°
2026-05-05 18:51 24.97114 55.83392 3625 ft 266 kts 306°
2026-05-05 18:51 24.98195 55.81768 3479 ft 258 kts 307°
2026-05-05 18:51 24.99231 55.80204 3369 ft 248 kts 302°
2026-05-05 18:51 25.00220 55.78709 3262 ft 237 kts 307°
2026-05-05 18:52 25.01188 55.77271 3144 ft 230 kts 308°
2026-05-05 18:52 25.02133 55.75890 3017 ft 223 kts 308°
2026-05-05 18:52 25.03055 55.74544 2889 ft 217 kts 308°
2026-05-05 18:52 25.03955 55.73243 2774 ft 210 kts 309°
2026-05-05 18:53 25.04831 55.71990 2639 ft 203 kts 307°
2026-05-05 18:53 25.05691 55.70782 2491 ft 198 kts 310°
2026-05-05 18:53 25.06552 55.69597 2248 ft 198 kts 309°
2026-05-05 18:53 25.07376 55.68368 2045 ft 205 kts 306°
2026-05-05 18:54 25.08245 55.66932 2081 ft 246 kts 305°
2026-05-05 18:54 25.09266 55.65283 2120 ft 271 kts 304°
2026-05-05 18:54 25.10319 55.63524 2134 ft 277 kts 303°
2026-05-05 18:54 25.11276 55.61677 2128 ft 277 kts 299°
2026-05-05 18:55 25.12214 55.59822 2117 ft 277 kts 300°
2026-05-05 18:55 25.13177 55.57973 2106 ft 274 kts 301°
2026-05-05 18:55 25.14171 55.56244 2080 ft 259 kts 303°
2026-05-05 18:55 25.15117 55.54636 2025 ft 239 kts 302°
2026-05-05 18:56 25.15959 55.53154 1999 ft 217 kts 303°
2026-05-05 18:56 25.16744 55.51824 2011 ft 199 kts 305°
2026-05-05 18:56 25.17481 55.50569 1989 ft 192 kts 303°
2026-05-05 18:56 25.18151 55.49366 1962 ft 177 kts 302°
2026-05-05 18:57 25.18746 55.48231 1773 ft 165 kts 302°
2026-05-05 18:57 25.19324 55.47172 1560 ft 158 kts 302°
2026-05-05 18:57 25.19874 55.46137 1339 ft 156 kts 303°
2026-05-05 18:57 25.20435 55.45129 1136 ft 155 kts 303°
2026-05-05 18:58 25.21013 55.44133 961 ft 152 kts 301°
2026-05-05 18:58 25.21553 55.43150 766 ft 148 kts 302°
2026-05-05 18:58 25.22082 55.42191 569 ft 145 kts 304°
2026-05-05 18:58 25.22617 55.41227 405 ft 145 kts 304°
2026-05-05 18:59 25.23140 55.40284 214 ft 144 kts 304°
2026-05-05 18:59 25.23660 55.39351 42 ft 145 kts 304°
2026-05-05 18:59 25.24124 55.38523 29 ft 100 kts 302°
2026-05-05 18:59 25.24392 55.38040 27 ft 60 kts 302°
2026-05-05 19:00 25.24602 55.37664 29 ft 54 kts 302°
2026-05-05 19:00 25.24719 55.37443 30 ft 25 kts 294°
2026-05-05 19:00 25.24777 55.37269 28 ft 24 kts 281°
2026-05-05 19:00 25.24785 55.37086 27 ft 24 kts 272°
2026-05-05 19:01 25.24802 55.36956 29 ft 8 kts 292°
2026-05-05 19:01 25.24830 55.36894 30 ft 10 kts 296°
2026-05-05 19:01 25.24856 55.36819 28 ft 11 kts 284°
2026-05-05 19:01 25.24874 55.36727 28 ft 13 kts 285°
2026-05-05 19:02 25.24912 55.36632 30 ft 14 kts 300°
2026-05-05 19:02 25.24961 55.36538 29 ft 14 kts 296°
2026-05-05 19:02 25.24984 55.36433 29 ft 15 kts 273°
2026-05-05 19:02 25.24991 55.36322 28 ft 13 kts 288°
2026-05-05 19:03 25.25033 55.36231 28 ft 9 kts 301°
2026-05-05 19:03 25.25033 55.36200 27 ft 3 kts 242°
2026-05-05 19:03 25.25011 55.36177 30 ft 5 kts 217°
2026-05-05 19:03 25.24985 55.36160 29 ft 0 kts 209°
2026-05-05 19:04 25.24976 55.36155 26 ft 3 kts 210°
2026-05-05 19:04 25.24965 55.36147 28 ft 0 kts 210°